Overview Statistics Trail Chart Weather Telemetry Raw packets
 

This is the latest recevied weather packets stored in our database for station/object 4S6DRJ-13. If no packets are shown the sender has not sent any weather packets the latest 10 day(s).

<< 105 106 107 108 109 110 111 >>
Time Temp. Humidity Pressure Rain* Wind** Luminosity Snow
1788298160 26.11° C 88% 1009.2 hPa 4.83 mm 0 m/s 0 W/m² -
1788298098 26.11° C 88% 1009.3 hPa 4.83 mm 0 m/s 0 W/m² -
1788298038 26.11° C 88% 1009.2 hPa 4.83 mm 0 m/s 0 W/m² -
1788297977 26.11° C 87% 1009.2 hPa 4.83 mm 0.45 m/s, 186° 0 W/m² -
1788297915 26.11° C 87% 1009.1 hPa 4.83 mm 1.79 m/s, 228° 0 W/m² -
1788297854 26.67° C 87% 1009.1 hPa 4.83 mm 1.34 m/s, 213° 0 W/m² -
1788297794 26.67° C 86% 1009.3 hPa 4.83 mm 2.24 m/s, 235° 0 W/m² -
1788297733 26.67° C 86% 1009.2 hPa 4.57 mm 2.24 m/s, 200° 0 W/m² -
1788297679 27.22° C 85% 1009.2 hPa 4.32 mm 1.34 m/s, 238° 0 W/m² -
1788297611 27.22° C 84% 1009.3 hPa 3.81 mm 1.79 m/s, 195° 0 W/m² -
1788297550 27.78° C 84% 1009.3 hPa 3.05 mm 1.79 m/s, 126° 0 W/m² -
1788297489 27.78° C 84% 1009.2 hPa 1.78 mm 2.24 m/s, 260° 0 W/m² -
1788297428 27.78° C 84% 1009.4 hPa 1.27 mm 1.79 m/s, 208° 0 W/m² -
1788297367 27.78° C 84% 1009.2 hPa 0 mm 1.34 m/s, 230° 0 W/m² -
1788297306 27.78° C 84% 1009.4 hPa 0 mm 0.89 m/s, 217° 0 W/m² -
1788297245 27.78° C 83% 1009.2 hPa 0 mm 0.45 m/s, 238° 0 W/m² -
1788297184 27.78° C 84% 1009.1 hPa 0 mm 0 m/s 0 W/m² -
1788297123 27.78° C 83% 1009 hPa 0 mm 0 m/s 0 W/m² -
1788297062 27.78° C 83% 1009 hPa 0 mm 0 m/s 0 W/m² -
1788297002 27.78° C 83% 1009.2 hPa 0 mm 0 m/s 0 W/m² -
1788296941 27.78° C 84% 1009.2 hPa 0 mm 0.45 m/s, 233° 0 W/m² -
1788296879 27.78° C 83% 1009.2 hPa 0 mm 0 m/s 0 W/m² -
1788296818 27.78° C 83% 1009.2 hPa 0 mm 0 m/s 0 W/m² -
1788296757 27.78° C 83% 1009.2 hPa 0 mm 0 m/s 0 W/m² -
1788296696 27.78° C 83% 1009.1 hPa 0 mm 0 m/s 0 W/m² -

* Rain latest hour (hover to see other rain measurements)
** Current wind speed in m/s (hover to see current wind gust speed)